Location: Cedarville Mobile Home Park
(38.5815°N, 75.0860°W)
Time: 21:29:47
(UTC+00:00)

BlueWalker 3 - Visible Passes

Search period start: 19 January 2026 00:00
Search period end: 29 January 2026 00:00
Orbit: 451 x 463 km, 53.2° (Epoch: 19 January)

Date Brightness Start Highest point End Pass type
(mag) Time Alt. Az. Time Alt. Az. Time Alt. Az.
19 Jan 2.9 23:10:06 10° S 23:13:07 26° SE 23:14:26 21° E visible
20 Jan 4.7 00:47:16 10° W 00:48:12 16° W 00:48:12 16° W visible
20 Jan 3.4 22:35:11 10° S 22:37:50 20° SE 22:40:28 10° E visible
21 Jan 2.9 00:11:42 10° WSW 00:14:39 39° WNW 00:14:39 39° WNW visible
21 Jan 2.2 23:36:11 10° WSW 23:39:40 55° NW 23:41:01 32° NNE visible
22 Jan 1.8 23:00:42 10° SW 23:04:15 75° NW 23:07:17 14° NE visible
23 Jan 4.7 00:40:12 10° WNW 00:41:02 13° NW 00:41:02 13° NW visible
24 Jan 4.0 00:04:18 10° WNW 00:06:43 17° NNW 00:07:14 17° NNW visible
24 Jan 3.8 23:28:27 10° WNW 23:31:10 20° NNW 23:33:21 13° NNE visible
25 Jan 3.6 22:52:39 10° W 22:55:38 24° NNW 22:58:36 10° NNE visible
27 Jan 4.4 23:22:01 10° NNW 23:22:52 11° NNW 23:23:43 10° N visible
28 Jan 4.2 22:45:44 10° NW 22:47:12 12° NNW 22:48:40 10° N visible
